EW6143 Weather Reports


Display with metric or nautical units.
time (UTC)temp
F
wind
direction
speed
MPH
gust
MPH
rain 1hr
in
rain 24hr
in
rain mn
in
humidity
%
barometer
mb
20260504004529 76 338 3.0 12.0 0.00 0.00 0.00 38 1015.5
20260504003033 76 313 5.0 13.0 0.00 0.00 0.00 38 1015.4
20260504001537 77 315 5.0 14.0 0.00 0.00 0.00 38 1015.4
20260504000032 78 329 6.0 13.0 0.00 0.00 0.00 37 1015.7
20260503234534 78 325 6.0 16.0 0.00 0.00 0.00 37 1015.7
20260503233037 78 344 4.0 12.0 0.00 0.00 0.00 38 1015.7
20260503231534 79 344 6.0 12.0 0.00 0.00 0.00 37 1015.8
20260503230031 80 5 5.0 12.0 0.00 0.00 0.00 32 1015.8
20260503224529 80 11 4.0 14.0 0.00 0.00 0.00 35 1015.9
20260503223032 80 360 4.0 11.0 0.00 0.00 0.00 33 1016.0
20260503221535 81 337 4.0 16.0 0.00 0.00 0.00 33 1016.1
20260503220029 81 339 6.0 13.0 0.00 0.00 0.00 32 1016.2
20260503214528 81 346 7.0 14.0 0.00 0.00 0.00 33 1016.4
20260503213033 81 10 7.0 15.0 0.00 0.00 0.00 32 1016.6
20260503211532 82 9 6.0 14.0 0.00 0.00 0.00 31 1016.8
20260503210029 81 307 5.0 13.0 0.00 0.00 0.00 33 1017.0
20260503204530 82 322 6.0 16.0 0.00 0.00 0.00 32 1017.4
20260503203036 81 22 6.0 14.0 0.00 0.00 0.00 32 1017.7
20260503201530 82 360 5.0 10.0 0.00 0.00 0.00 31 1018.0
20260503200031 81 17 2.0 15.0 0.00 0.00 0.00 33 1018.2
20260503194531 81 347 5.0 14.0 0.00 0.00 0.00 32 1018.6
20260503193031 81 5 7.0 17.0 0.00 0.00 0.00 35 1018.7
20260503191533 81 348 4.0 15.0 0.00 0.00 0.00 34 1018.8
20260503190028 81 340 5.0 16.0 0.00 0.00 0.00 34 1019.1
20260503184528 82 318 4.0 11.0 0.00 0.00 0.00 36 1019.2
20260503183031 80 58 7.0 15.0 0.00 0.00 0.00 35 1019.5
20260503181530 81 350 3.0 13.0 0.00 0.00 0.00 39 1019.7
20260503180030 79 28 5.0 14.0 0.00 0.00 0.00 38 1020.1
20260503174530 80 321 4.0 12.0 0.00 0.00 0.00 41 1020.3
20260503173031 79 340 5.0 13.0 0.00 0.00 0.00 44 1020.6
20260503171530 78 38 5.0 14.0 0.00 0.00 0.00 43 1020.8
20260503081531 55 0 0.0 0.0 0.00 0.00 0.00 72 1020.0
20260503071532 57 0 0.0 0.0 0.00 0.00 0.00 66 1020.2
20260503054535 61 0 0.0 0.0 0.00 0.00 0.00 60 1020.1
20260503053026 61 0 0.0 0.0 0.00 0.00 0.00 60 1020.2
20260503051525 61 314 1.0 3.0 0.00 0.00 0.00 60 1020.0
20260503050036 61 0 0.0 0.0 0.00 0.00 0.00 62 1019.9
20260503044531 61 0 0.0 0.0 0.00 0.00 0.00 64 1020.0
20260503043030 62 0 0.0 0.0 0.00 0.00 0.00 65 1020.0
20260503041537 62 0 0.0 0.0 0.00 0.00 0.00 65 1019.9
20260503040028 62 0 0.0 0.0 0.00 0.00 0.00 63 1020.0
20260503034528 63 0 0.0 0.0 0.00 0.00 0.00 61 1019.9
20260503033029 64 0 0.0 0.0 0.00 0.00 0.00 57 1019.9
20260503031530 65 0 0.0 3.0 0.00 0.00 0.00 55 1019.7
20260503030038 65 316 0.0 2.0 0.00 0.00 0.00 53 1019.6
20260503024528 67 316 0.0 2.0 0.00 0.00 0.00 50 1019.5
20260503023027 68 0 0.0 2.0 0.00 0.00 0.00 47 1019.4
20260503021527 68 316 1.0 3.0 0.00 0.00 0.00 47 1019.3
20260503020027 69 318 0.0 3.0 0.00 0.00 0.00 47 1019.1
20260503014527 70 0 0.0 1.0 0.00 0.00 0.00 45 1019.2
20260503013032 71 67 0.0 2.0 0.00 0.00 0.00 42 1019.0
20260503011528 73 0 0.0 2.0 0.00 0.00 0.00 38 1018.8
20260503010034 74 0 0.0 2.0 0.00 0.00 0.00 38 1018.8